Theta_e
315 317 320 321 317 315 315 314 314 314 314 315 315 315 315 315 314 313 316 317 316 316 317 316 314 313 313 313 313 312 312 313 312 312 312 312 312 312 313 313 312 312 312 310 308 308 308 307 308 308 308 307 307 306 304 303 302 301 300 299 299 299 298 298 298 297 297 297 296 296 296 295 295 294 294 294 294 294 293 293 293 292 292 291 291 290
316 317 319 319 315 314 315 315 314 314 314 314 315 315 315 316 316 314 316 317 315 314 316 316 315 314 313 313 313 312 312 313 313 313 312 312 312 312 312 312 312 312 312 314 313 308 306 307 307 307 307 306 305 304 303 302 301 301 300 300 299 298 298 298 298 297 297 297 296 296 295 295 295 294 294 294 294 294 293 293 293 292 292 291 290 290
317 318 317 315 315 314 315 316 315 314 315 315 315 316 317 317 316 314 315 317 314 314 317 317 314 312 312 312 311 312 312 312 313 313 313 313 312 312 312 312 312 312 314 319 318 309 304 305 306 306 305 305 305 304 303 302 301 301 300 300 299 298 298 297 297 297 297 296 296 296 295 295 295 294 294 294 294 293 293 293 292 292 292 291 290 290
318 319 316 314 315 315 315 315 315 315 314 315 316 317 317 316 316 315 315 316 313 313 318 317 314 312 312 312 312 312 312 312 313 313 314 314 314 314 313 313 313 313 316 320 319 311 305 304 303 304 304 304 304 302 302 301 301 300 300 300 299 298 298 297 297 297 297 296 296 295 295 295 294 294 294 294 293 293 293 293 293 292 292 291 290 290
314 317 318 316 315 316 316 315 316 315 314 315 317 316 316 316 316 314 314 316 315 316 316 314 314 314 313 313 313 314 313 313 313 313 314 314 314 314 314 314 314 314 317 319 317 312 308 305 302 302 303 303 302 301 301 301 301 300 300 299 299 298 298 297 297 297 296 296 295 295 294 294 293 293 293 293 293 293 293 293 292 292 292 290 290 289
312 315 318 318 318 318 317 316 318 318 315 315 317 318 317 316 316 316 316 316 318 322 318 314 318 318 318 317 315 315 315 314 313 312 313 313 313 314 314 313 314 315 317 317 315 312 308 305 302 300 301 301 301 301 301 301 301 300 300 299 299 298 298 297 297 296 296 295 295 294 294 293 293 292 292 292 292 292 292 292 292 292 291 290 289 289
313 314 316 318 320 321 319 319 322 320 316 315 320 323 318 317 317 318 319 318 323 328 319 316 321 320 318 319 317 316 317 317 316 314 313 313 312 313 313 313 314 317 320 316 312 310 307 304 302 300 300 300 301 301 301 301 301 300 299 299 298 298 297 297 296 296 296 295 295 294 294 293 293 292 292 292 292 292 292 292 292 292 291 290 289 289
316 314 318 320 318 321 319 318 321 321 316 316 324 329 323 321 322 321 321 323 326 325 318 318 321 319 318 318 317 317 318 318 317 316 315 314 314 313 313 313 314 318 321 317 312 309 306 305 303 301 299 300 301 301 300 300 300 300 299 299 298 298 297 297 296 296 296 295 295 294 294 293 293 293 292 292 292 292 292 291 291 291 291 290 289 288
319 317 321 322 319 320 319 317 320 320 318 318 322 326 323 321 322 321 320 322 325 321 318 320 319 318 318 316 316 316 314 316 315 316 316 315 316 314 313 313 313 316 319 317 314 310 306 304 301 300 300 300 300 300 300 300 300 299 299 298 298 297 297 296 296 296 296 295 295 294 294 293 293 293 293 292 292 292 291 291 291 291 290 289 289 288
319 318 319 323 321 318 319 324 325 322 320 318 320 324 327 326 323 320 317 319 324 321 318 321 318 317 318 316 316 315 314 315 314 314 314 314 316 315 314 314 312 315 318 316 313 310 305 302 301 301 300 300 300 300 299 299 299 298 298 298 297 297 297 296 296 296 296 295 295 294 294 293 293 293 292 292 292 292 291 291 291 291 290 289 289 288
315 313 314 320 320 319 323 321 318 319 318 317 320 325 328 330 327 326 324 321 320 319 319 321 319 317 318 317 317 316 315 316 315 315 314 313 315 315 314 315 314 316 318 316 313 310 305 301 300 300 300 299 299 299 299 298 298 298 298 297 297 297 297 296 296 296 295 295 294 294 294 293 293 293 292 292 291 291 291 291 291 290 290 289 289 289
313 312 315 320 320 320 321 316 315 318 316 317 325 325 324 329 329 326 324 320 318 319 320 321 318 316 317 317 316 316 316 315 315 316 316 316 316 316 314 315 316 317 318 316 313 310 306 303 301 300 298 299 298 298 298 298 297 297 297 297 297 297 296 296 296 295 295 295 294 294 294 294 293 293 292 292 292 291 291 291 290 290 290 289 289 289
316 314 315 317 317 318 319 318 321 320 315 317 324 322 320 324 323 321 322 322 321 320 320 318 317 316 315 316 315 316 317 316 315 316 317 319 320 319 316 316 318 320 319 317 314 310 308 305 304 301 298 298 298 297 297 297 297 297 297 297 296 296 296 296 295 295 295 294 294 294 294 293 293 293 293 292 292 291 291 290 290 290 289 289 289 289
323 321 316 314 315 317 318 317 319 320 317 316 319 321 320 320 320 320 325 326 321 321 321 315 316 318 316 318 318 315 316 318 316 315 316 319 321 320 318 318 320 323 320 316 314 311 308 306 304 301 298 298 298 297 297 297 297 296 296 296 296 296 296 296 295 295 295 294 294 294 294 293 293 293 292 292 292 291 291 290 290 290 290 290 289 289
324 321 317 317 319 318 315 314 317 322 320 315 317 319 319 323 325 323 325 323 319 326 326 315 318 323 318 319 323 316 314 316 315 315 314 316 318 317 317 321 324 324 320 316 314 311 308 306 303 300 298 298 298 297 297 297 296 296 296 296 296 296 296 295 295 295 294 294 294 294 293 293 293 292 292 292 292 291 291 291 290 290 290 290 290 289
319 320 319 317 319 317 314 315 316 322 322 316 317 317 314 322 325 319 321 321 317 323 324 316 321 327 318 316 320 316 315 316 315 314 313 314 317 316 318 327 329 324 320 317 315 312 309 306 301 297 298 298 298 297 297 296 296 296 296 296 295 296 296 295 295 295 294 294 294 294 293 293 293 292 292 292 292 291 291 291 291 290 290 290 290 289
317 322 320 314 315 314 313 315 315 318 321 316 316 316 314 320 321 317 322 323 316 317 318 315 320 322 317 316 316 314 315 316 315 314 313 314 316 316 318 326 330 325 321 317 314 313 310 307 302 297 297 298 297 297 297 296 297 296 296 296 295 295 295 295 295 294 294 294 294 293 293 293 292 292 292 292 292 291 291 291 291 290 290 290 289 289
319 321 320 317 317 313 309 313 314 315 317 317 319 318 316 318 321 321 325 325 320 319 318 316 317 316 316 317 318 317 316 316 317 315 314 313 314 314 315 322 328 324 318 313 311 310 308 308 304 298 297 298 298 298 297 297 297 296 296 296 295 295 295 295 295 294 294 294 294 293 293 293 292 292 292 292 292 291 291 291 290 290 290 289 289 289
324 320 321 320 319 315 310 312 315 312 313 318 319 317 317 321 322 322 322 322 320 319 318 317 316 315 314 314 316 316 316 318 318 315 314 312 312 313 313 319 323 318 314 313 313 311 309 308 305 299 297 298 298 298 297 297 296 296 296 296 295 295 295 295 295 294 294 294 293 293 293 292 292 292 292 291 291 291 291 291 290 290 290 289 289 288
322 321 321 317 314 314 312 313 319 317 312 313 314 314 316 318 321 323 321 320 320 319 318 318 317 316 315 316 316 315 316 317 316 314 314 313 312 313 313 317 322 320 318 318 315 311 308 307 303 299 298 299 298 298 297 296 296 296 296 295 295 295 295 294 294 294 294 293 293 293 292 292 292 292 292 291 291 291 291 291 290 290 290 289 289 288
319 320 319 315 311 314 314 313 318 319 315 314 314 316 315 314 318 321 318 318 319 317 317 317 317 316 316 318 317 314 316 318 317 315 314 313 313 314 315 316 319 321 320 318 314 310 308 306 302 298 298 299 298 298 297 296 296 296 295 295 295 295 294 294 294 294 294 293 293 293 292 292 292 291 291 291 291 291 290 290 290 290 289 289 288 288
321 320 318 316 313 314 316 315 316 317 316 315 314 316 315 314 316 318 316 318 318 316 316 316 317 316 314 316 315 312 315 318 319 317 315 315 314 315 317 317 318 320 320 318 316 311 307 306 303 299 298 298 298 298 297 296 296 295 295 295 295 294 294 294 294 294 293 293 292 292 292 291 291 291 291 291 291 290 290 290 290 289 289 288 288 288
322 320 317 317 317 317 317 316 315 314 313 314 315 316 315 314 315 317 317 317 316 316 316 316 316 317 314 315 314 313 314 315 316 317 315 315 314 313 315 316 318 319 317 316 315 311 308 306 303 298 297 297 296 297 297 296 295 295 295 295 294 294 294 294 294 293 293 293 292 292 291 291 291 290 290 290 290 290 290 289 289 289 289 288 287 287
317 317 316 316 319 321 319 315 314 313 311 313 315 316 315 313 314 315 314 314 315 316 315 317 317 316 314 314 315 314 313 313 315 316 315 314 314 315 315 317 320 322 321 317 313 310 308 306 303 301 300 298 295 296 296 296 295 295 295 294 294 294 294 294 294 293 293 292 292 291 291 290 290 290 290 290 290 290 289 289 289 288 288 288 287 287
315 319 320 318 319 320 319 316 315 314 312 312 314 314 315 314 314 315 313 313 314 315 314 316 316 315 314 314 314 314 313 312 313 314 315 314 314 318 321 322 324 326 325 319 312 310 309 309 307 306 303 299 295 296 296 296 295 295 294 294 294 294 294 294 293 293 293 292 292 291 291 290 290 290 289 289 289 289 289 288 288 287 287 287 286 286
317 319 320 319 319 319 319 318 319 317 313 312 313 313 313 313 314 314 314 314 315 315 315 316 315 315 314 314 314 313 313 312 312 312 313 312 313 317 320 319 317 316 316 314 311 311 311 311 309 307 304 300 296 296 296 295 295 295 294 294 294 294 294 293 293 293 292 292 291 291 290 290 290 289 289 289 288 288 287 287 287 287 286 286 286 285
317 316 317 318 319 320 318 318 320 320 316 314 315 315 313 313 313 313 314 315 315 316 316 316 316 316 315 314 314 313 313 313 312 312 312 311 312 314 313 312 311 311 311 310 310 312 312 311 309 306 304 300 296 296 296 295 295 294 294 294 294 294 293 293 293 292 292 291 291 290 290 289 289 289 289 288 288 287 286 286 286 286 285 285 285 285
314 314 317 317 317 318 318 318 318 318 316 316 316 316 314 314 313 314 314 314 314 315 316 316 316 316 316 314 314 313 313 313 312 312 312 311 311 311 311 311 312 312 310 309 310 313 313 311 309 307 305 301 296 295 295 295 294 294 294 293 293 293 293 293 292 292 291 291 290 290 289 289 289 288 288 288 287 286 285 285 285 285 285 284 284 284
314 315 316 316 315 316 316 317 317 317 317 317 316 316 316 315 314 313 313 313 313 315 315 315 315 316 315 314 313 313 313 313 313 312 312 312 311 311 311 311 311 310 309 309 312 314 311 309 308 307 305 303 298 295 294 293 293 293 292 293 292 292 292 292 292 291 290 290 290 289 289 289 288 287 287 287 286 285 284 284 284 284 284 284 283 283
314 315 316 316 315 315 314 315 315 315 315 315 316 316 316 316 315 314 313 312 312 313 313 313 314 314 313 313 313 312 312 313 312 312 312 311 311 310 310 310 310 309 309 311 313 312 309 307 307 306 305 304 302 298 294 293 292 292 292 292 291 291 292 291 291 290 290 290 289 289 289 288 287 287 286 286 285 284 284 283 283 283 283 283 282 282
313 316 316 316 315 315 314 314 314 314 314 315 315 315 314 315 315 315 314 314 313 313 313 313 314 313 312 311 312 311 312 312 312 311 311 310 310 311 310 310 310 309 310 312 312 309 307 306 306 305 305 305 304 299 294 293 293 292 292 291 291 291 291 291 290 290 290 289 289 289 288 287 287 286 285 284 284 283 283 282 282 282 282 281 281 280
312 314 314 315 316 315 314 314 313 313 313 314 314 314 314 314 314 314 314 314 314 314 314 314 314 313 312 311 311 311 311 311 311 311 310 310 311 310 310 310 310 309 311 311 311 310 308 306 305 304 305 305 302 297 295 295 294 292 291 291 291 291 290 290 290 289 289 289 288 288 287 287 286 285 284 284 283 282 282 281 281 281 280 280 280 279
311 312 313 314 316 315 315 315 314 313 314 315 315 314 314 314 314 314 314 313 313 313 314 314 314 313 312 311 311 311 311 311 311 311 310 310 310 310 310 310 309 309 310 310 310 310 309 306 304 304 305 304 301 298 298 298 295 293 293 292 291 291 289 289 289 289 288 288 288 287 287 286 285 284 283 283 282 281 281 280 280 280 280 279 279 278
310 310 311 313 315 316 316 315 314 314 315 316 316 314 313 313 313 314 314 313 313 312 313 313 313 312 312 312 312 312 312 311 311 311 310 310 311 311 310 310 310 310 309 309 309 309 308 306 304 304 303 301 300 300 301 299 297 297 296 293 291 290 289 288 288 288 288 287 287 286 286 285 284 283 282 282 281 280 280 279 279 279 279 278 277 277
311 310 311 312 313 315 315 315 317 317 316 317 317 314 312 312 313 313 313 313 312 312 312 312 312 312 312 312 312 312 312 311 311 311 311 311 312 311 310 309 309 308 308 308 308 308 308 307 306 305 302 300 300 300 300 299 299 298 296 293 291 290 289 288 287 287 287 286 286 285 285 284 283 282 281 281 280 279 279 278 278 277 277 277 276 276
311 312 312 312 312 314 314 315 318 317 314 314 315 314 312 312 312 312 313 313 311 311 312 312 311 311 311 312 312 311 311 311 311 311 310 309 307 306 306 306 305 305 305 305 306 307 307 306 305 304 302 300 300 300 299 299 299 297 294 292 291 289 288 287 287 286 286 285 285 285 284 283 282 281 280 279 279 278 277 277 277 276 276 275 275 274
311 312 312 313 313 314 315 315 316 316 314 313 315 315 312 312 313 312 314 313 308 304 306 308 308 308 309 309 309 309 310 310 311 311 309 304 302 303 303 303 303 303 303 302 302 302 302 302 301 300 300 300 300 300 299 299 298 295 292 290 289 288 287 286 286 286 285 285 284 284 283 283 282 280 279 278 277 277 277 276 276 275 275 274 274 273
311 312 312 313 314 313 315 316 315 316 316 315 315 314 311 311 312 312 314 313 303 296 300 305 305 304 304 304 304 305 308 311 311 310 306 302 302 303 303 303 303 303 302 301 300 299 297 297 298 299 299 299 299 299 299 298 296 293 290 288 287 287 286 285 285 285 285 285 284 283 283 282 281 280 279 278 277 277 276 276 275 275 274 274 273 273
310 311 310 312 314 313 315 316 315 316 316 310 307 307 307 308 309 311 315 313 300 294 298 303 304 302 301 301 301 302 305 308 307 305 302 301 301 302 302 302 302 302 301 300 299 298 296 296 297 299 299 296 295 296 296 295 294 291 288 287 286 285 285 285 285 286 285 285 284 283 282 281 281 280 279 277 277 277 276 275 275 274 274 274 274 273
310 311 311 312 313 313 314 314 315 316 312 302 300 303 303 304 307 312 316 308 296 293 298 302 301 299 298 298 299 299 300 301 301 300 299 299 300 300 301 301 301 301 301 298 297 298 297 297 298 299 298 297 296 295 294 294 292 290 288 286 285 284 285 285 286 286 285 284 284 282 282 281 280 280 278 277 277 276 276 275 274 273 273 273 273 273
305 306 309 312 313 313 313 313 314 314 307 299 299 302 303 305 311 313 308 299 293 293 297 299 297 296 296 297 296 295 296 298 298 297 297 297 298 298 298 299 298 298 299 297 296 297 297 297 297 298 299 300 298 295 294 293 291 289 287 286 284 284 285 286 285 285 284 284 283 282 281 280 280 279 278 277 277 276 275 274 274 273 272 272 272 272
299 302 306 308 308 309 310 309 312 312 305 299 300 301 301 304 307 305 298 293 293 295 296 296 295 294 295 296 295 294 294 295 295 295 295 295 295 295 295 296 296 296 296 295 295 296 296 297 297 297 299 300 298 295 293 292 290 288 287 285 284 285 286 285 285 285 284 283 282 281 280 280 279 278 277 276 276 275 274 273 273 272 272 272 272 271
296 298 300 301 302 304 304 305 308 308 303 299 299 299 298 298 298 297 295 294 296 296 295 295 294 293 294 294 293 293 293 293 293 293 293 294 294 294 294 295 295 295 295 294 294 295 295 296 297 296 297 299 297 294 293 292 290 287 286 285 286 287 286 285 285 284 284 282 281 280 279 279 278 277 276 276 275 274 273 272 272 272 271 271 271 271
296 296 297 298 300 300 299 301 301 300 299 300 299 297 296 295 295 296 296 295 295 296 295 294 293 293 293 293 292 292 293 292 293 293 293 293 293 293 294 294 295 295 294 294 294 294 294 295 296 296 297 298 297 294 292 291 290 287 286 287 288 287 285 285 285 284 282 281 280 279 278 278 277 276 276 275 274 274 273 272 271 271 271 271 271 271
296 296 295 295 296 296 296 296 296 296 297 298 297 295 293 293 296 298 297 294 293 294 294 293 292 292 293 292 292 293 292 292 292 292 292 293 293 293 294 294 294 295 294 294 294 294 294 295 295 295 295 296 296 294 292 291 290 288 288 289 288 286 285 284 283 282 281 280 279 278 277 277 276 275 275 274 274 273 272 271 270 270 270 270 270 270
292 292 292 292 293 293 293 293 294 295 294 293 292 291 292 294 298 299 296 293 293 294 294 293 292 292 292 293 292 292 291 290 290 290 291 292 292 293 293 293 293 294 294 294 295 295 295 296 296 296 295 295 296 295 293 292 290 289 290 290 288 286 285 283 282 280 279 278 277 277 276 275 274 274 273 273 273 272 272 271 270 270 270 270 270 270
290 291 291 291 291 291 290 290 291 291 291 290 290 291 292 295 296 294 291 291 293 292 291 291 292 292 292 291 290 289 288 288 288 289 290 290 291 291 291 291 292 292 293 294 294 294 295 296 297 298 298 296 295 295 295 293 292 291 291 290 288 286 284 283 281 279 277 276 276 275 275 274 273 272 272 272 272 272 271 270 270 270 269 269 269 269
291 291 291 290 290 289 289 289 290 289 289 290 290 289 289 291 291 290 289 290 290 289 288 289 290 290 289 288 287 287 287 287 287 288 288 289 289 289 289 290 290 291 291 292 293 293 294 295 297 298 298 296 295 295 295 294 293 292 290 289 287 286 284 282 280 278 276 275 274 273 273 273 272 271 271 271 271 271 270 270 269 269 269 270 270 270
291 291 290 290 290 289 289 289 289 289 289 289 289 288 288 289 288 287 287 287 286 286 287 287 287 287 286 286 285 286 286 286 287 287 287 287 288 288 288 289 289 290 290 291 291 292 293 294 295 295 295 295 295 295 295 294 294 292 290 287 286 285 283 281 279 277 276 274 273 272 271 271 271 270 270 270 270 270 270 269 269 269 270 270 271 272
290 290 290 290 289 289 289 289 289 289 288 288 288 288 288 287 286 284 284 284 284 284 285 285 284 284 284 284 284 285 285 285 285 285 286 286 286 287 287 288 288 289 289 289 290 290 291 292 293 293 293 294 294 294 294 294 294 292 289 287 285 284 282 280 277 275 274 272 271 271 270 270 270 270 270 270 269 269 269 269 269 270 270 271 272 272
290 289 289 289 289 289 289 289 289 288 288 288 288 288 287 285 283 282 282 282 282 283 283 282 281 282 282 282 283 283 283 283 283 284 284 284 284 285 285 286 286 287 287 288 288 289 290 290 291 291 292 293 293 293 293 293 293 292 289 287 285 283 282 279 276 274 273 272 271 270 270 270 269 269 269 269 269 268 268 269 269 270 271 271 272 272
Wind_Speed
5 4 3 6 10 11 8 11 14 13 10 10 9 9 10 9 11 13 10 6 8 6 7 12 14 16 17 19 17 14 11 11 12 11 11 12 12 12 12 14 14 14 15 11 12 22 29 30 32 33 33 33 34 35 37 38 39 40 40 40 40 41 41 42 41 41 40 39 37 35 35 34 33 33 32 30 29 29 28 27 26 25 25 24 23 21
4 5 7 13 16 11 8 11 13 11 11 11 10 10 10 7 12 14 9 6 6 5 8 11 13 15 16 19 16 10 9 12 15 14 14 15 14 13 14 17 16 14 11 7 9 16 21 25 29 30 31 33 34 34 37 39 40 40 41 42 42 43 43 44 44 44 42 42 40 38 38 37 36 35 34 33 32 30 29 28 27 26 25 24 23 21
3 6 13 17 13 8 7 8 9 10 11 10 8 8 8 6 11 12 7 6 4 5 7 9 11 13 15 17 15 11 10 13 15 15 17 17 14 13 15 16 15 13 10 8 8 8 15 23 26 28 30 34 36 36 37 39 40 40 41 43 42 43 45 44 44 44 42 41 39 37 37 37 35 34 35 34 33 31 30 29 28 26 25 25 23 21
5 8 14 15 9 8 11 9 8 9 8 9 9 8 8 7 8 10 5 2 2 4 5 7 8 9 9 13 15 14 13 13 15 16 18 17 13 15 17 15 14 13 11 10 7 6 11 17 22 26 29 32 33 34 36 38 40 41 42 43 43 44 45 44 43 43 41 39 37 34 33 34 33 32 33 31 30 31 30 30 29 28 27 26 24 23
11 9 9 11 10 11 13 11 8 7 8 11 10 8 11 11 11 12 7 4 3 4 4 5 9 8 8 13 16 13 11 12 14 16 18 18 15 14 17 16 15 13 11 10 9 8 10 13 19 25 28 31 32 34 38 40 42 43 43 44 43 44 44 43 43 42 40 37 35 31 27 28 28 27 29 30 30 32 31 32 32 31 29 28 26 24
12 8 6 7 10 11 12 9 7 8 10 11 8 11 15 14 13 12 8 6 5 6 4 3 7 8 7 13 16 10 7 10 11 13 17 17 15 13 14 17 15 12 10 9 10 11 11 11 16 21 25 29 31 35 39 42 43 42 42 43 43 43 42 42 42 42 40 38 37 34 31 31 28 27 31 35 35 36 36 36 35 33 31 29 27 25
8 9 8 10 11 11 9 7 8 11 9 10 6 11 13 11 11 10 6 3 3 6 3 3 2 8 5 8 11 7 7 11 10 11 14 14 13 11 13 16 12 8 8 8 9 11 11 11 12 17 24 30 33 36 39 40 41 40 41 42 42 42 41 41 41 41 41 39 39 39 37 37 35 32 34 37 37 38 38 37 35 34 32 30 28 26
6 7 8 12 11 8 8 9 9 11 8 8 3 8 9 8 9 7 4 5 4 4 4 2 2 7 11 7 10 11 11 13 12 10 12 12 12 13 14 15 12 8 8 9 9 10 12 12 14 18 26 33 34 35 36 38 40 40 40 42 42 41 40 40 41 42 43 42 41 41 39 37 37 35 35 36 37 37 37 36 35 34 32 30 29 27
3 5 8 10 8 7 8 9 8 10 8 6 2 5 5 4 4 1 2 3 2 4 4 3 4 4 15 8 9 12 12 11 13 13 13 13 14 15 14 15 13 9 9 10 11 12 13 13 18 23 28 32 33 33 36 38 40 40 39 39 40 40 40 41 42 44 45 44 43 42 39 36 36 35 33 34 35 36 36 36 35 34 32 31 29 27
1 4 7 8 6 8 6 3 4 8 7 3 4 4 4 3 3 4 1 1 3 5 5 6 7 3 15 9 7 7 7 10 12 12 14 14 14 15 14 13 12 9 8 10 11 12 12 15 21 25 25 27 29 31 34 36 36 37 36 37 39 40 41 42 43 45 45 45 43 42 40 38 36 34 32 32 33 35 35 35 35 35 34 32 30 28
3 0 2 5 5 6 4 3 2 2 3 1 5 5 6 5 5 4 1 4 2 8 6 10 12 9 10 6 7 6 6 11 11 8 10 11 12 15 14 10 10 9 8 9 9 8 9 14 19 21 22 25 27 29 31 32 33 35 36 37 40 41 42 42 44 45 46 45 44 43 42 41 39 37 34 33 34 35 35 35 36 36 35 34 32 30
5 1 3 3 3 5 6 3 2 4 3 4 5 4 4 5 4 4 4 4 2 9 6 13 15 13 11 5 2 3 5 9 10 8 10 12 12 14 12 9 9 9 8 8 8 7 8 10 13 16 19 24 26 28 31 33 35 36 37 39 39 40 41 43 44 45 45 45 45 44 43 43 41 39 39 38 38 38 39 38 37 36 35 35 34 32
6 8 8 2 1 6 6 2 3 5 3 5 4 4 1 5 3 3 3 0 4 7 5 11 10 9 12 6 2 6 7 7 9 9 11 12 12 13 12 9 8 7 7 8 8 8 9 10 11 12 17 22 26 30 33 34 36 37 38 39 39 41 42 43 43 45 45 46 46 45 44 44 42 41 41 40 40 40 41 40 39 39 39 38 37 35
4 8 6 3 3 5 9 6 3 2 4 6 6 6 4 3 2 3 4 3 5 7 5 6 7 5 9 4 8 13 12 12 11 11 13 11 12 13 11 8 7 7 7 8 8 9 10 11 11 12 16 22 25 30 32 34 36 36 36 38 40 41 42 42 43 45 46 47 47 46 45 44 42 41 42 41 40 41 41 41 42 42 42 42 41 40
4 9 5 8 3 7 12 13 11 5 5 7 7 6 6 5 4 4 5 6 6 6 5 3 5 5 5 3 9 13 12 11 9 11 12 10 10 11 8 6 5 7 7 7 8 9 10 11 11 12 17 22 25 28 31 33 35 35 37 40 41 41 42 43 44 45 47 48 47 46 45 44 43 42 42 41 40 41 41 42 42 42 43 43 42 40
5 10 6 5 1 9 11 10 8 6 1 4 5 5 5 6 6 5 6 6 2 3 6 3 4 6 5 6 7 8 9 9 8 10 9 9 11 9 8 7 7 7 7 7 8 9 10 9 9 12 17 21 23 25 29 32 34 37 39 41 42 43 43 44 45 46 48 48 46 46 45 44 43 42 41 41 41 41 42 42 42 42 41 41 40 39
5 7 2 2 2 4 5 2 3 4 2 2 4 4 5 4 7 5 5 3 2 4 8 6 7 6 5 8 7 6 8 7 7 9 8 11 13 11 10 8 7 7 8 8 8 9 9 8 9 13 17 20 22 26 31 36 39 41 41 41 42 42 40 42 45 46 46 45 45 45 45 44 44 44 43 43 42 41 41 41 41 41 40 40 39 37
5 5 3 5 2 3 2 2 1 1 4 6 4 6 2 3 2 3 1 2 2 7 8 8 13 9 5 9 5 3 3 7 8 10 10 13 13 12 11 9 7 8 7 7 8 7 7 8 9 13 19 24 28 31 35 38 38 38 38 39 41 40 42 45 46 45 45 44 45 46 46 46 46 46 45 43 41 41 40 40 40 40 40 39 38 36
4 6 7 5 5 2 2 3 2 3 3 6 3 3 3 1 2 3 3 3 5 8 7 9 14 10 7 9 6 3 6 9 11 11 11 12 12 12 12 9 7 6 5 6 8 7 7 9 10 13 20 25 29 32 33 33 32 33 36 38 39 40 44 44 43 42 43 44 45 46 46 47 46 45 44 42 41 41 41 42 41 40 40 39 37 36
4 5 6 1 2 1 2 2 4 3 1 2 1 2 1 3 5 4 3 4 5 9 8 9 11 10 9 7 5 8 9 9 10 10 10 11 12 13 11 8 7 7 7 7 8 8 9 10 11 16 22 26 29 30 28 28 30 34 36 36 37 39 40 39 40 42 43 44 44 43 43 44 44 44 43 42 42 42 43 43 42 41 40 39 38 37
2 5 7 1 2 1 2 4 8 8 6 3 3 4 3 2 2 1 2 3 4 7 7 7 8 9 9 3 3 6 7 7 9 9 10 11 12 12 10 9 9 8 8 9 8 9 10 10 11 17 23 25 24 24 24 27 32 34 35 36 38 39 38 38 41 42 43 43 42 42 43 43 44 43 42 42 43 43 43 43 43 42 41 40 39 39
1 3 6 2 1 4 5 4 8 10 10 8 7 8 7 6 3 3 6 4 3 5 5 7 8 9 10 5 1 5 5 5 7 8 9 11 13 13 12 11 10 8 9 9 9 9 9 10 11 15 20 21 20 22 26 30 31 32 35 38 39 38 39 41 42 43 43 41 40 41 41 41 41 41 41 42 43 43 43 43 44 43 42 42 41 40
2 2 5 5 4 6 5 2 5 7 5 2 4 6 5 5 5 5 9 6 4 5 4 7 9 7 11 15 11 8 6 5 8 9 9 11 13 13 12 11 9 8 9 9 8 8 8 9 9 11 14 17 21 25 27 28 31 35 38 38 37 38 41 43 43 43 40 38 39 39 38 37 38 39 40 42 43 44 44 44 44 44 44 43 42 41
0 2 2 5 4 4 5 3 2 3 1 2 3 4 4 3 5 7 7 5 6 6 4 8 9 5 11 18 14 9 8 7 7 9 10 12 12 10 9 8 7 8 8 8 8 8 7 7 7 8 9 13 18 23 26 29 33 35 35 35 36 40 43 43 41 38 37 38 38 37 36 37 38 39 40 42 43 44 44 44 44 45 45 44 43 42
3 1 1 3 4 5 5 5 5 4 4 4 5 6 7 9 10 9 5 4 7 9 10 11 9 6 11 17 14 13 16 14 12 10 8 10 9 7 8 8 8 8 8 10 9 7 8 8 7 9 10 11 16 22 26 29 31 33 34 36 38 40 41 40 38 37 37 38 37 36 38 39 39 41 42 42 42 43 44 44 45 45 44 44 43 42
3 3 2 5 7 7 7 7 6 5 3 2 4 9 13 15 16 12 7 6 8 11 13 12 10 11 15 18 20 22 23 22 20 15 11 10 10 8 8 8 8 8 9 11 10 8 8 8 9 11 11 11 15 20 23 27 30 32 34 36 39 40 38 38 38 38 38 38 38 38 39 40 41 43 44 43 42 42 42 43 44 44 44 44 43 42
2 5 9 13 14 12 13 14 9 5 4 5 8 13 16 17 18 15 9 9 12 11 12 13 15 18 18 18 23 25 24 24 25 21 15 13 12 12 12 11 9 9 10 9 7 7 9 9 11 13 12 11 14 20 23 26 29 31 33 35 38 38 37 37 38 38 38 38 38 38 39 42 44 45 45 44 42 40 40 41 43 44 44 44 43 42
2 6 13 19 21 20 20 22 18 13 13 15 14 16 17 16 16 15 14 16 15 12 13 16 19 21 19 19 23 26 25 24 25 23 17 13 14 15 15 13 11 11 10 6 5 7 10 11 13 13 12 11 13 19 23 25 28 31 32 34 35 36 36 36 37 38 38 38 38 39 41 42 42 42 43 42 40 39 40 40 41 42 43 43 42 42
3 8 13 17 21 23 23 24 23 19 18 18 18 20 21 19 16 16 18 20 18 15 16 17 19 21 18 18 24 27 27 27 25 21 15 12 12 12 12 12 13 13 10 5 6 9 11 13 14 12 12 11 12 16 19 23 26 27 29 32 32 34 37 36 36 37 37 37 39 40 40 39 38 38 39 39 39 39 40 40 41 41 41 42 41 41
4 7 11 16 20 21 22 23 23 23 22 21 21 22 23 22 20 19 19 20 19 20 20 18 20 21 16 16 22 25 26 25 21 18 16 16 16 16 15 15 15 15 11 7 10 13 13 14 14 13 12 11 11 14 16 20 24 27 30 32 31 33 36 36 36 36 36 38 40 39 37 37 36 36 37 38 39 39 40 40 41 41 41 41 41 40
7 9 11 13 14 15 19 21 22 23 24 24 24 23 21 22 23 22 20 19 19 21 22 22 23 20 16 18 22 23 23 21 19 20 22 21 22 22 19 17 16 15 12 10 13 13 12 13 14 13 12 13 15 15 17 21 25 28 29 29 30 33 35 36 36 36 37 38 38 36 35 36 36 36 37 38 39 39 40 40 41 41 41 40 40 39
7 8 8 9 10 10 14 18 21 23 24 24 23 22 22 22 22 21 20 19 19 21 22 22 19 16 17 21 23 23 24 23 22 24 24 23 25 26 23 20 17 14 13 14 15 13 13 14 14 14 14 15 15 16 20 24 24 24 26 29 32 34 33 35 35 36 36 36 34 34 35 36 37 37 37 38 39 40 40 41 41 41 41 40 40 40
6 7 6 8 10 9 11 17 20 18 16 16 16 22 27 27 24 22 20 21 22 20 18 17 16 17 19 19 20 21 23 24 23 22 21 22 25 25 22 18 17 15 14 16 16 14 14 14 13 14 16 16 16 20 27 29 26 26 30 33 33 32 32 34 35 34 33 32 33 35 36 37 37 38 38 39 40 40 41 42 42 42 42 42 41 40
5 8 7 7 8 9 11 15 14 12 11 10 12 21 28 28 26 25 23 25 26 22 18 18 19 20 19 18 19 21 22 22 21 19 19 19 18 18 18 18 17 16 14 13 13 12 12 12 11 13 15 18 23 29 32 31 30 31 33 31 29 30 32 33 33 32 31 32 34 36 37 37 38 39 39 39 40 41 42 42 42 42 42 41 40 40
7 9 8 6 6 7 8 10 10 9 9 7 9 16 23 26 28 27 26 27 27 25 25 25 24 23 22 21 20 20 21 21 20 20 19 15 10 11 15 18 18 17 15 12 11 11 11 10 10 11 13 20 28 29 27 27 30 31 28 25 27 30 32 32 31 31 31 32 34 36 37 38 39 39 39 39 40 41 42 42 42 41 41 41 41 40
13 11 7 6 7 7 5 8 10 8 3 1 3 8 13 16 19 20 22 25 23 22 21 21 21 21 21 21 19 18 19 18 17 15 12 10 10 9 9 12 14 15 14 13 11 11 11 11 11 13 17 22 25 24 24 27 29 27 24 25 27 29 30 30 29 29 31 32 35 37 39 40 39 38 39 40 40 41 41 41 41 41 41 39 38 37
15 12 8 7 7 7 8 10 11 11 7 4 6 9 12 14 15 15 18 15 7 9 12 11 13 15 15 13 14 14 14 13 12 8 7 12 11 9 9 9 10 13 13 13 13 13 14 15 14 15 19 21 22 22 24 25 23 21 20 21 24 26 27 28 28 29 32 34 36 38 39 40 40 39 39 40 40 40 40 40 40 40 40 39 37 35
13 12 9 8 6 7 11 11 9 12 12 7 7 8 10 15 16 15 15 8 7 15 15 12 13 15 15 15 17 15 8 5 6 4 8 13 13 11 11 10 9 11 12 13 14 14 18 21 20 19 17 16 19 20 18 16 17 18 18 18 22 24 25 25 27 30 33 35 37 39 39 40 40 39 39 40 41 40 39 39 40 40 41 40 39 37
12 11 11 8 5 8 13 11 10 12 7 5 9 11 11 12 10 6 7 5 8 15 15 11 12 14 15 15 16 14 8 4 4 5 10 15 14 11 11 11 11 12 12 13 14 14 17 21 23 22 19 14 15 17 12 9 14 16 15 17 20 21 20 24 29 34 37 38 37 38 39 39 40 41 41 41 41 40 40 39 39 40 40 39 40 39
6 7 8 7 7 11 15 13 10 7 1 7 11 14 17 14 6 1 2 2 11 17 12 8 11 14 14 13 12 11 9 7 7 10 13 16 14 11 11 11 13 13 12 13 18 20 21 22 20 17 16 16 15 13 9 8 11 12 12 15 16 17 21 26 30 31 32 33 34 36 38 39 41 41 41 41 39 38 38 38 38 38 38 37 37 38
4 4 5 7 8 12 16 14 9 3 3 7 11 13 16 13 2 2 1 4 12 17 12 8 11 13 12 9 8 8 7 6 8 12 15 15 15 15 14 12 14 15 13 14 19 22 22 22 18 14 16 19 16 10 7 8 10 10 11 12 13 18 23 23 22 21 23 25 29 34 36 37 38 39 38 37 37 36 36 37 37 38 38 36 35 37
4 4 4 4 6 8 9 10 10 4 3 10 15 13 11 7 2 2 5 6 9 13 13 12 12 12 10 8 7 8 10 11 11 13 14 15 15 16 16 15 16 18 19 20 22 22 20 19 19 18 21 24 19 11 8 9 10 10 10 10 14 20 20 16 17 20 23 24 27 30 32 33 34 34 34 34 35 35 35 34 35 37 38 38 38 38
4 6 6 5 4 5 5 6 6 4 5 15 16 11 8 5 4 5 5 6 6 8 11 13 12 9 9 10 10 11 12 14 14 14 14 15 15 15 16 16 15 15 17 18 21 24 21 16 15 18 23 26 21 14 10 9 11 11 10 13 18 20 16 15 19 23 25 27 28 29 30 31 31 33 34 34 36 36 35 33 34 36 37 39 41 40
5 4 4 4 3 4 4 4 4 7 10 12 8 4 5 5 3 3 3 6 7 6 6 7 9 9 9 11 13 14 14 14 14 14 13 14 15 15 15 15 14 14 15 14 17 22 20 15 15 20 26 29 24 16 12 11 11 10 11 16 20 19 18 19 21 24 26 28 29 29 30 30 31 33 34 35 36 36 34 34 35 37 37 38 41 41
4 5 6 5 5 5 5 7 9 11 11 7 4 6 10 6 2 5 5 7 8 6 5 5 8 9 9 9 12 13 12 13 14 14 14 14 14 14 14 14 14 13 14 16 18 21 20 16 17 20 23 27 25 18 14 13 11 10 12 17 19 19 21 22 24 26 27 27 28 29 30 30 30 32 33 36 37 37 35 35 36 36 35 36 41 42
6 9 9 6 6 8 8 8 9 9 11 13 12 10 8 4 4 5 5 7 7 5 4 5 6 7 8 8 9 9 11 13 15 16 14 14 14 14 14 14 14 14 13 14 18 22 22 20 19 17 16 21 24 20 18 18 16 16 18 18 16 19 21 23 26 26 27 27 28 30 30 30 29 30 32 35 36 37 36 37 38 37 34 36 40 39
6 7 7 6 7 9 9 8 8 9 13 18 16 9 4 5 5 3 4 4 4 4 5 6 7 8 8 7 8 10 13 14 15 16 15 14 14 15 15 15 15 15 14 15 18 22 21 17 15 14 12 15 20 21 21 23 24 25 25 20 18 20 22 24 25 25 26 27 28 29 31 32 30 30 32 34 34 34 35 37 40 40 39 41 41 35
5 5 5 7 8 9 10 11 12 12 14 14 12 9 7 4 2 2 3 3 3 5 6 6 7 8 8 8 9 11 13 14 14 15 15 14 14 14 14 15 16 16 17 18 20 21 18 13 14 14 13 15 21 23 23 26 29 29 26 23 21 22 23 25 26 25 26 28 29 30 31 32 32 33 34 34 34 35 37 38 40 44 46 47 46 40
5 5 6 8 9 10 11 12 12 12 12 11 11 10 8 4 3 2 2 2 4 5 6 6 7 8 9 11 11 11 13 14 14 14 14 14 15 14 14 15 16 16 17 19 21 20 17 15 15 15 14 18 25 25 23 26 31 30 26 25 24 24 25 25 25 24 25 27 28 28 29 30 32 33 33 33 32 34 37 40 44 48 48 44 44 43
5 7 8 8 8 8 10 11 10 9 9 11 13 8 4 4 5 6 6 6 6 6 7 7 9 10 10 11 11 11 12 13 14 15 15 13 14 16 16 16 17 16 18 22 24 22 20 20 19 18 18 23 27 27 25 28 31 30 27 26 26 27 27 25 23 21 22 24 25 26 28 29 30 31 32 32 30 30 31 32 37 44 45 40 37 37
8 9 9 8 9 11 13 12 9 7 9 12 11 5 3 3 5 8 9 9 8 7 7 8 10 11 12 12 11 12 13 14 15 15 14 13 14 15 16 17 18 17 19 23 22 19 19 21 22 20 21 24 28 27 27 29 31 29 28 28 29 30 29 27 23 19 20 23 25 28 30 29 30 31 32 31 31 31 29 26 26 31 33 31 28 27
Wind_Direction
153 159 164 196 230 229 201 197 217 232 239 249 257 258 254 256 265 259 261 241 187 194 224 221 235 241 249 255 250 251 257 257 254 244 240 240 244 245 243 246 246 244 251 256 230 219 217 211 204 204 202 197 195 194 194 192 192 191 189 190 192 193 193 192 191 192 191 191 190 190 191 193 194 195 197 199 203 205 208 207 205 203 202 201 198 196
145 173 210 219 231 231 201 202 221 232 239 249 251 259 260 247 262 262 255 248 193 197 247 234 242 249 249 256 257 247 243 251 252 247 245 240 239 246 247 250 250 248 257 263 231 218 209 201 198 197 194 190 189 190 191 191 190 191 191 193 194 193 193 194 194 193 193 193 192 192 193 194 194 195 197 198 201 203 205 207 207 206 205 204 201 199
190 214 227 225 233 242 232 218 221 230 234 243 246 256 262 248 268 269 245 248 201 189 253 249 246 254 252 258 261 250 235 240 246 246 250 247 242 248 249 249 251 252 257 252 232 208 194 191 190 189 189 189 190 189 189 190 190 190 192 195 195 194 194 196 196 195 195 195 196 197 197 196 195 196 199 201 200 201 203 206 208 208 208 208 205 202
218 233 230 227 231 240 248 242 232 249 248 239 241 250 258 250 264 268 248 257 221 205 256 267 262 257 260 270 266 252 241 241 247 247 252 254 246 246 250 251 252 249 245 240 227 195 188 185 183 185 186 187 187 186 187 188 189 191 194 196 196 196 196 196 196 196 197 197 197 200 201 199 197 197 198 199 199 200 202 203 205 208 211 211 208 205
236 235 216 215 222 228 243 245 229 250 260 243 233 232 250 250 245 255 276 324 295 280 289 285 288 269 234 253 260 254 244 243 248 249 254 257 250 248 256 257 252 245 233 220 210 195 188 184 185 187 186 184 184 185 188 189 191 194 196 197 197 198 198 197 197 197 197 195 194 195 195 195 196 195 193 193 194 197 200 203 205 208 210 211 210 208
247 235 183 198 221 223 234 243 215 212 253 260 226 213 237 248 248 257 289 331 316 296 284 234 280 275 206 223 249 257 252 249 245 242 248 254 253 250 257 258 250 239 229 211 201 195 191 188 185 185 184 183 186 189 191 193 194 196 197 198 198 198 198 199 198 197 196 195 193 191 189 188 188 188 191 194 194 195 200 204 206 207 209 210 210 209
241 220 187 205 223 221 224 246 218 200 240 270 226 206 227 242 255 262 274 296 264 264 275 138 236 278 246 215 238 243 242 250 245 238 243 249 252 244 244 256 249 223 218 212 204 195 188 184 180 185 188 188 191 194 194 194 195 197 198 198 198 199 199 199 198 197 197 196 196 196 195 194 192 191 195 199 199 199 201 204 205 206 207 209 209 209
216 203 198 214 223 218 221 245 223 189 222 267 218 192 211 230 250 253 231 222 233 273 296 129 125 289 279 236 212 216 222 242 250 246 247 245 246 243 239 250 247 214 201 201 202 198 191 187 185 189 193 194 195 195 193 194 196 198 199 199 199 199 199 199 199 198 199 199 199 199 199 199 199 199 200 200 201 202 202 203 204 204 205 208 209 210
187 193 206 204 207 211 218 235 204 169 210 256 151 167 176 197 226 151 159 223 297 330 285 204 121 290 279 249 191 210 213 227 244 241 244 243 241 244 240 244 248 225 200 199 199 198 194 191 193 194 195 197 197 195 194 196 197 198 199 198 198 199 199 200 200 200 201 202 201 200 201 201 203 204 203 201 200 201 201 201 202 203 204 206 208 210
194 204 197 168 181 216 217 234 169 163 217 239 98 83 61 60 51 68 103 120 36 307 253 195 150 217 278 268 164 194 207 213 235 235 236 237 238 248 244 238 245 234 207 206 205 200 194 192 196 196 195 197 198 197 198 198 197 197 197 197 198 200 201 201 201 202 203 203 202 202 201 202 202 202 202 199 198 198 199 198 199 200 202 203 205 207
240 166 180 166 189 200 148 83 86 144 216 130 82 48 22 7 27 50 19 75 50 275 234 184 177 187 270 285 142 170 199 198 213 225 239 242 239 250 249 233 231 227 211 206 204 197 189 191 195 194 194 196 198 199 199 198 198 197 197 198 200 202 202 202 202 203 203 203 203 204 203 203 202 200 198 196 195 196 196 196 196 199 201 202 204 204
255 224 211 215 179 131 101 87 360 16 63 85 81 64 8 328 12 24 357 59 214 265 220 184 183 187 233 273 126 232 238 203 205 206 225 237 236 246 251 235 223 220 205 192 189 180 172 183 191 192 194 195 196 197 199 199 198 198 199 199 201 203 203 204 203 203 204 204 205 206 205 205 204 201 200 198 197 196 196 196 196 196 198 199 201 202
261 230 216 221 177 143 129 136 339 353 50 95 99 103 5 300 340 348 313 121 222 261 231 189 179 205 240 258 266 278 284 236 221 213 215 223 230 243 251 239 221 211 194 181 179 176 176 186 189 191 195 194 195 198 199 199 199 199 200 200 201 204 204 204 204 204 204 205 206 207 207 207 206 204 204 203 201 200 198 197 195 194 194 195 197 200
285 266 208 162 278 181 155 177 235 273 177 157 148 145 171 221 259 264 262 269 263 270 258 184 164 241 277 273 212 227 236 225 216 218 220 219 224 234 248 248 218 199 192 184 180 181 186 193 193 192 195 196 198 200 199 199 200 199 200 202 204 206 206 205 205 205 205 207 208 208 208 208 207 206 207 206 205 203 200 198 197 196 196 196 198 201
254 285 196 161 230 183 175 202 205 167 158 181 161 151 182 187 179 220 241 255 273 287 284 173 161 234 282 268 215 217 233 234 221 223 226 228 235 240 260 269 215 195 191 186 187 192 197 196 194 195 197 200 201 200 199 201 201 200 202 204 205 207 206 206 206 206 206 208 208 208 209 209 208 208 208 208 208 206 203 201 199 199 199 199 201 203
222 271 223 165 168 162 179 220 193 124 107 218 130 131 212 197 185 229 257 238 230 311 286 220 199 235 251 264 249 238 254 254 238 235 234 244 251 249 256 247 213 196 189 191 196 203 208 201 195 200 201 204 203 200 202 203 202 202 204 205 206 208 207 206 207 208 208 208 208 208 209 209 209 209 209 209 209 208 206 203 202 201 201 202 203 204
224 274 249 112 22 153 174 239 165 146 210 197 128 185 218 162 169 219 277 269 161 257 271 254 248 275 309 289 265 237 255 269 266 255 240 242 245 241 242 234 215 205 194 197 206 206 208 203 202 206 204 204 204 202 205 206 205 205 205 205 207 208 208 208 209 210 210 208 207 208 209 209 209 208 209 209 208 207 206 205 204 203 203 204 204 204
224 268 257 174 202 253 172 110 21 260 147 132 174 216 190 65 126 164 222 293 242 246 264 269 268 282 300 284 307 40 275 265 265 253 238 239 241 241 243 233 221 214 201 209 226 225 217 211 211 211 209 209 208 208 210 209 208 208 208 207 208 207 207 209 210 211 211 209 208 208 208 208 209 209 209 209 207 206 205 205 205 204 204 204 204 204
207 253 268 186 173 237 92 112 291 301 125 134 204 218 122 156 231 164 174 209 233 245 256 268 275 278 251 255 296 317 249 240 242 239 239 243 242 245 247 243 239 232 217 218 225 228 220 216 216 213 213 214 214 215 216 213 210 211 212 212 211 211 211 211 210 211 213 212 210 209 208 208 208 208 208 207 206 205 204 205 205 204 205 204 203 202
177 224 254 188 157 184 71 157 202 226 217 99 320 305 103 187 192 185 183 168 215 243 252 260 272 274 255 238 247 253 240 233 238 237 240 241 237 241 245 241 239 229 219 218 218 220 217 218 220 217 217 217 217 219 218 213 212 212 213 214 214 215 215 214 212 213 215 215 213 211 209 209 208 207 207 205 205 205 205 206 205 204 205 203 201 201
173 218 231 232 9 186 179 203 185 180 194 187 208 237 238 219 176 219 232 166 203 238 246 251 255 265 265 217 180 260 250 225 231 229 233 238 237 243 247 238 231 224 223 223 220 221 219 221 224 223 224 223 222 222 218 215 215 214 214 214 215 216 215 214 214 214 216 216 215 212 209 208 207 205 205 204 205 205 205 205 205 204 203 201 200 200
156 232 236 223 235 229 236 229 192 188 189 184 200 211 209 209 199 250 249 215 210 238 239 250 252 262 273 261 246 292 268 226 230 226 234 245 240 238 237 229 222 220 227 226 220 223 220 220 224 225 226 223 220 220 218 216 216 214 215 215 215 215 214 215 215 214 216 216 215 215 211 207 205 204 203 203 203 203 204 204 204 203 201 200 199 199
147 182 251 254 241 246 274 271 193 208 216 205 216 212 205 200 186 222 242 232 236 245 238 258 257 256 271 273 279 289 275 251 239 228 231 245 242 239 239 234 224 223 233 233 228 229 225 223 226 225 222 220 218 219 219 217 216 216 217 216 214 215 216 216 216 215 215 215 216 216 213 207 204 203 203 202 202 202 202 202 202 201 200 199 198 199
352 140 236 272 291 303 309 305 209 179 173 283 260 216 197 209 213 229 246 251 254 251 244 258 258 248 266 271 279 289 285 278 262 245 237 241 246 254 260 258 248 241 247 247 238 235 235 233 233 227 221 219 219 220 219 217 218 218 218 216 215 216 218 217 216 215 213 214 215 214 211 208 203 202 203 203 203 202 201 200 200 199 199 199 198 198
302 313 36 298 291 299 305 295 269 228 193 214 233 225 222 229 235 243 257 256 249 244 241 252 259 249 256 267 277 283 282 281 272 258 246 247 254 262 264 261 253 248 253 252 244 236 236 235 229 225 223 219 219 219 219 218 218 218 217 216 216 218 219 216 214 213 212 213 212 211 210 207 203 201 203 204 204 203 201 199 198 198 198 198 198 198
232 217 211 250 249 249 252 251 246 234 222 219 222 230 232 229 230 236 243 242 240 236 235 242 251 246 250 264 274 274 274 274 268 256 242 244 253 254 249 251 252 248 250 251 245 238 240 239 235 231 227 224 222 220 219 218 218 218 218 218 218 218 217 214 212 211 211 210 209 208 208 206 203 202 202 203 204 203 201 198 197 197 197 198 198 197
170 191 206 226 231 235 241 241 232 201 209 231 227 231 235 230 228 229 230 236 239 239 237 234 240 246 249 256 265 267 268 270 269 262 247 240 247 251 251 254 256 251 253 255 246 245 253 252 246 240 232 227 227 224 222 220 218 217 217 218 219 218 216 212 210 209 209 208 207 207 207 206 206 203 201 202 202 201 200 198 197 196 196 198 198 197
148 206 214 224 228 230 236 240 239 231 232 238 237 238 240 235 229 227 229 234 235 242 246 235 233 243 247 248 256 263 264 263 264 264 260 250 247 251 257 262 260 256 262 267 250 247 252 252 249 245 239 231 229 229 227 225 223 220 218 219 218 215 214 211 208 206 206 206 206 207 208 208 208 205 201 199 199 198 198 197 197 197 197 197 198 199
204 229 222 227 233 232 234 239 242 242 244 244 243 244 245 241 232 227 232 235 232 237 247 241 237 242 243 242 249 256 258 259 262 266 270 265 256 253 255 256 256 261 262 248 245 250 245 246 248 245 241 235 229 231 229 227 227 224 222 222 218 213 212 209 206 204 203 203 206 208 208 207 206 205 201 196 195 196 196 196 196 196 196 197 198 199
218 236 222 230 240 236 233 237 238 241 246 246 244 243 245 247 244 238 239 242 240 244 251 255 254 251 246 243 246 250 256 261 269 277 278 273 267 259 253 253 261 272 269 234 234 244 241 243 248 245 242 240 234 231 229 227 226 222 222 221 215 212 211 206 203 202 201 203 207 207 205 203 203 202 199 195 193 194 193 194 194 195 196 197 197 198
213 228 219 228 244 239 233 235 235 235 241 244 245 245 246 250 252 249 248 246 246 251 252 252 255 257 255 251 251 254 259 265 272 276 275 273 269 266 264 265 268 271 266 243 235 241 246 251 252 247 243 240 238 233 228 229 227 223 223 220 214 212 209 204 201 201 202 205 206 203 201 200 199 198 197 195 193 192 192 192 193 193 194 195 196 197
209 234 232 236 250 239 226 232 235 235 239 242 245 247 246 245 244 244 243 240 240 246 249 250 251 252 250 250 252 256 260 263 264 265 268 270 271 272 273 274 271 264 254 249 248 250 253 252 245 240 239 239 239 236 233 233 229 224 221 218 216 213 206 201 200 201 203 204 202 198 198 197 195 195 195 193 192 191 191 191 191 191 192 193 194 195
208 233 233 235 252 246 223 227 233 233 237 237 232 233 237 237 238 240 242 242 238 238 242 243 242 241 243 245 250 253 254 256 255 255 259 264 268 273 278 278 274 263 252 253 258 256 250 243 234 231 235 238 238 238 237 234 228 224 224 220 216 209 201 199 200 201 201 200 197 196 196 195 193 193 193 192 191 190 189 189 190 190 191 192 193 193
231 240 239 235 252 253 237 237 237 231 234 231 214 219 227 231 234 236 237 238 238 236 238 241 243 247 248 244 244 247 248 250 251 250 251 256 265 276 282 281 275 269 265 263 260 254 245 237 234 234 235 239 241 241 241 237 232 231 230 223 212 203 198 197 198 198 198 196 195 195 194 193 192 192 192 191 189 188 188 188 189 190 190 191 191 190
247 248 249 244 255 261 250 247 244 236 236 237 217 215 221 227 232 237 241 242 241 242 244 247 249 249 248 247 246 246 248 250 253 255 259 269 286 294 291 291 293 295 296 289 273 263 256 244 238 238 238 240 243 244 242 239 236 234 229 217 205 199 196 195 194 195 195 193 194 194 193 192 192 191 190 189 188 187 187 188 188 188 189 190 190 190
238 243 240 234 243 252 243 231 239 255 282 309 227 216 221 231 236 243 252 251 250 256 260 264 269 267 263 261 258 255 256 259 261 266 286 327 344 340 328 320 322 323 320 314 299 280 271 260 245 240 242 245 247 246 243 240 236 227 217 208 200 196 192 191 191 192 192 193 194 194 192 191 190 189 188 187 186 186 187 187 187 187 187 188 188 189
227 233 234 235 226 228 243 241 248 270 275 239 220 208 207 217 218 226 244 250 271 318 322 330 334 327 320 310 298 285 272 270 273 281 347 4 354 352 354 342 335 334 332 332 327 314 307 302 290 276 267 260 256 251 245 242 233 214 203 197 192 189 187 187 190 192 193 195 195 194 193 191 189 188 187 186 186 186 187 187 186 187 186 185 185 186
228 223 225 237 218 220 248 251 250 261 258 246 243 231 223 229 224 225 239 246 30 13 353 1 14 7 3 360 347 331 304 269 276 303 0 352 340 342 341 331 336 338 335 340 343 340 334 329 322 315 306 288 278 274 264 246 220 197 189 187 185 184 184 187 193 195 195 198 197 194 193 191 189 188 186 187 188 188 187 187 186 187 187 186 186 187
241 231 229 242 234 230 243 245 246 253 262 344 334 325 322 296 276 271 257 253 9 359 343 350 14 18 11 2 356 356 8 10 332 333 344 336 328 330 327 325 334 335 330 338 344 341 336 337 338 341 346 343 323 314 303 252 207 186 182 186 184 183 186 195 200 199 198 200 197 193 192 191 190 189 188 189 190 188 187 187 187 187 188 188 189 188
258 242 238 243 241 242 247 250 253 248 343 13 344 337 332 315 298 306 252 293 344 336 331 355 13 14 7 354 355 6 11 358 331 322 324 321 314 314 316 316 322 323 323 333 337 335 333 336 341 345 347 344 333 324 305 242 205 190 188 187 183 189 201 207 206 204 202 198 193 191 192 191 191 191 191 190 189 188 187 187 187 186 187 188 188 186
316 274 254 252 254 254 253 256 262 239 80 10 349 348 337 322 300 140 262 314 320 314 319 358 4 359 354 346 351 352 333 315 302 299 304 307 306 309 311 308 309 311 311 315 322 326 326 325 324 321 320 321 320 308 272 223 200 200 196 183 189 207 213 212 209 206 202 196 192 191 191 192 192 192 191 190 187 186 187 187 187 187 186 184 183 181
329 298 281 279 279 275 270 277 280 256 74 19 357 356 1 348 316 312 315 296 293 308 327 343 344 341 333 326 328 316 303 299 295 291 296 302 304 306 309 312 312 312 315 318 320 323 322 317 314 313 314 315 312 290 251 215 199 202 194 190 212 220 217 213 206 199 195 193 192 192 191 192 192 191 189 188 185 184 186 187 188 188 185 182 180 177
297 294 296 290 289 294 289 286 273 256 15 12 356 354 26 20 299 296 312 292 291 321 329 324 323 323 316 314 313 306 303 304 302 300 301 301 304 306 307 309 312 312 316 319 320 322 322 317 311 309 309 310 304 283 253 219 201 197 194 210 226 223 213 208 202 194 190 190 190 191 191 191 191 189 187 186 185 184 184 185 187 186 183 180 177 174
258 268 281 285 309 316 287 284 303 308 332 357 4 341 338 331 263 241 291 303 307 310 299 299 309 312 312 316 314 311 311 309 308 311 311 307 309 310 308 311 313 312 314 313 313 319 321 315 310 309 308 308 302 284 261 240 217 205 212 226 226 213 201 201 196 188 187 187 187 189 190 189 190 189 187 185 185 183 182 183 184 183 182 180 177 173
282 299 293 283 289 282 264 278 301 307 315 331 342 316 317 323 167 189 262 296 299 286 273 286 301 308 314 316 312 312 315 317 318 321 320 317 316 315 316 320 319 317 318 316 317 322 321 312 306 305 304 304 302 291 275 262 241 226 238 239 224 206 197 192 187 184 184 184 184 185 186 187 188 188 187 186 185 183 181 180 180 180 182 180 177 172
300 304 298 291 293 288 275 274 289 308 317 312 308 310 310 285 204 214 263 290 289 285 297 303 302 310 318 319 319 320 319 319 320 318 317 317 318 319 320 320 317 317 319 317 319 323 322 315 309 304 300 300 299 294 284 274 257 245 252 250 227 209 201 190 183 181 180 180 182 183 182 183 184 186 187 187 186 186 184 181 179 180 182 180 176 172
280 280 282 291 301 298 290 288 300 311 307 300 300 303 282 249 254 289 324 325 319 327 332 322 313 316 321 326 327 319 312 313 314 313 315 316 314 315 315 313 312 313 312 311 314 316 316 314 310 306 303 299 296 291 284 276 264 255 254 250 228 212 203 192 184 181 179 179 180 180 181 181 182 183 185 186 187 188 187 184 183 181 179 177 175 172
279 290 288 283 283 282 284 295 300 291 282 279 286 300 305 290 298 354 2 2 2 348 332 325 324 323 321 320 316 309 306 308 308 309 311 312 310 311 311 309 309 309 307 307 309 309 309 308 303 303 302 295 293 290 282 274 268 260 252 243 228 211 199 193 189 185 183 182 180 180 182 182 181 182 184 185 188 188 186 185 185 182 181 181 179 175
279 294 280 274 280 282 285 290 290 285 281 280 286 302 323 344 357 354 340 345 346 334 324 322 320 316 311 307 305 304 303 304 307 309 310 310 309 310 309 307 308 307 306 306 307 306 304 300 296 296 293 289 290 290 281 274 272 264 250 237 226 211 200 195 192 188 185 183 181 181 182 182 182 184 184 185 188 189 189 189 187 185 184 184 183 181
261 267 266 273 280 277 274 274 277 285 289 291 296 313 9 25 350 338 334 335 335 330 328 323 314 309 306 304 307 311 308 306 309 311 310 309 308 309 310 309 307 305 304 305 306 305 302 297 294 292 288 285 286 285 279 274 272 266 252 237 224 213 204 196 190 187 186 184 183 183 181 181 183 184 184 184 184 184 187 190 190 188 186 185 187 189
245 248 252 261 262 261 266 269 271 279 280 283 298 333 66 55 357 341 328 325 326 327 329 326 316 312 312 312 313 313 309 307 309 310 309 307 305 307 308 308 306 306 305 304 303 302 299 296 293 290 286 284 283 280 276 273 270 264 252 238 225 216 207 196 187 186 189 189 190 187 183 182 183 182 184 184 181 178 178 179 185 190 190 188 189 192